Wind_Speed
3 4 5 5 6 7 8 8 8 8 8 8 8 7 7 7 7 7 7 7 7 7 7 8 7 7 7 7 7 7 7 7 7 7 7 7 7 7 7 7 7 7 7
4 5 5 6 7 8 9 9 10 9 9 9 9 9 8 8 8 9 8 8 8 8 8 8 8 8 8 8 8 8 8 8 8 8 8 8 8 8 8 8 8 7 7
6 6 7 8 9 10 10 11 11 11 10 10 9 9 10 10 10 10 9 9 9 9 9 9 9 9 9 10 9 9 9 9 9 9 8 8 9 9 8 8 8 8 8
8 9 9 10 10 11 12 12 12 12 11 11 11 10 11 11 11 11 10 10 11 11 10 10 10 10 10 11 11 11 11 10 10 10 10 9 10 10 9 10 9 9 9
9 10 11 11 12 13 14 14 13 13 13 12 12 12 12 12 12 12 12 12 12 12 12 12 12 12 12 12 12 12 12 12 12 12 11 11 11 11 11 10 10 10 10
11 11 12 12 13 14 15 15 14 14 14 13 13 13 13 14 13 13 13 13 13 13 13 13 14 14 13 13 13 13 13 13 13 13 13 13 13 12 12 12 11 11 11
12 13 13 14 15 15 16 16 15 15 15 15 15 15 15 15 15 15 15 15 15 14 14 14 15 15 15 15 15 15 14 14 15 15 15 15 14 14 14 13 13 13 13
13 14 14 15 15 16 17 17 17 16 16 16 16 16 17 17 17 17 16 16 16 16 15 16 16 16 16 16 16 16 16 16 17 16 16 16 16 16 15 15 14 14 14
15 15 15 15 16 17 18 18 18 18 18 18 18 18 18 18 18 18 18 18 18 18 17 17 17 17 17 17 17 17 18 18 17 18 18 17 17 17 17 16 16 16 16
16 16 16 16 17 18 19 19 20 20 20 20 20 20 20 20 20 20 20 19 19 19 19 19 19 19 19 18 18 18 18 19 19 18 19 19 19 19 19 18 18 17 17
17 18 19 18 19 20 20 20 21 21 21 21 21 21 22 22 22 21 21 21 21 21 21 21 21 20 20 20 21 20 19 21 21 20 20 20 21 21 21 21 20 19 19
18 19 20 20 21 21 21 22 22 22 22 22 22 23 23 24 24 23 22 23 23 23 22 22 22 22 22 22 22 22 22 22 22 22 22 22 22 22 22 22 21 21 20
20 21 21 22 23 23 23 23 23 23 23 24 24 25 24 24 24 24 23 23 24 24 23 23 23 24 25 24 23 23 23 23 23 24 23 22 22 22 23 23 23 22 22
22 22 23 23 24 24 24 24 24 25 25 25 25 25 25 25 24 24 24 25 25 25 25 25 24 25 25 26 25 25 24 24 25 25 25 24 24 24 24 24 24 24 23
22 23 23 23 24 24 25 25 25 26 26 26 26 26 26 25 25 26 26 26 27 27 27 27 26 26 26 26 26 26 26 26 26 26 27 26 26 26 25 25 25 26 25
23 23 24 25 25 25 26 26 26 27 27 27 27 27 27 27 27 27 27 27 28 28 28 28 28 28 27 27 28 27 27 26 27 27 28 28 28 28 28 27 27 27 28
24 24 25 25 25 26 26 25 25 26 26 27 27 27 28 28 28 28 28 29 28 28 28 29 29 29 29 29 29 28 27 27 27 28 28 29 29 30 30 30 29 29 29
24 25 25 26 26 26 25 25 25 26 27 27 27 28 28 28 28 28 29 29 29 28 29 30 30 30 29 30 30 29 29 28 28 29 29 30 30 31 31 31 31 31 30
24 25 25 25 26 25 25 25 25 26 28 28 29 30 29 29 29 29 30 30 30 30 30 31 31 30 30 31 31 31 31 30 31 31 31 31 32 33 33 33 32 33 32
24 25 25 25 25 25 25 25 26 27 28 29 30 31 32 31 30 30 30 31 31 31 31 31 31 31 31 31 32 32 32 32 32 32 31 32 32 33 34 33 33 34 34
24 24 24 25 26 25 25 26 26 27 28 29 30 30 30 30 30 30 31 32 32 32 32 31 32 32 32 32 33 33 33 34 33 32 33 33 33 33 34 34 35 35 36
23 24 25 25 26 25 26 26 26 27 27 28 29 30 30 29 29 30 31 32 32 32 32 32 32 33 33 33 33 33 33 34 33 33 33 33 33 33 34 35 35 36 37
22 23 24 25 25 26 26 26 27 27 28 28 29 30 30 30 30 30 30 31 32 32 31 31 31 32 33 33 33 34 34 34 32 33 33 33 33 34 35 36 36 36 36
23 24 24 25 25 26 27 27 27 28 29 29 29 29 30 30 29 29 29 30 30 30 31 32 32 33 33 32 33 33 33 33 33 32 33 33 34 34 35 36 36 36 36
23 24 25 26 26 26 27 28 28 28 29 30 30 29 29 29 29 29 29 29 29 30 31 32 32 32 32 31 32 32 32 33 33 33 33 33 34 35 35 35 35 35 36
23 24 25 25 26 26 27 27 27 28 29 29 29 28 28 28 28 28 28 29 30 31 31 31 31 31 31 31 31 31 31 31 31 32 33 33 33 34 35 35 34 34 34
Wind_Direction
337 339 340 339 336 333 329 323 320 319 319 319 320 321 321 322 323 323 324 323 322 321 318 316 313 312 311 307 303 299 298 299 295 293 294 293 290 287 282 277 273 260 249
323 327 328 330 329 327 324 320 317 313 312 313 313 313 312 312 313 313 314 314 315 313 311 309 306 305 304 301 299 297 295 295 295 291 289 288 288 287 281 275 271 259 250
315 319 317 318 320 319 315 313 311 309 307 307 307 306 307 307 306 308 308 308 308 307 305 302 298 297 298 296 293 292 291 289 289 288 284 284 285 284 281 274 267 256 253
305 309 308 309 313 313 310 308 307 307 304 302 302 302 302 302 301 302 301 301 301 299 297 296 293 292 292 292 289 287 287 286 286 284 282 281 283 280 278 271 262 255 250
297 301 301 304 309 310 307 304 303 303 301 298 298 298 298 297 296 296 296 295 295 294 292 291 289 289 288 288 286 284 283 283 283 282 279 278 278 276 274 270 263 258 248
293 297 298 300 303 304 303 301 299 299 297 294 295 295 296 295 293 293 292 292 293 293 291 288 287 285 283 284 283 281 280 280 279 279 277 274 273 273 272 267 262 257 249
291 294 296 297 298 298 299 295 295 295 294 292 291 292 293 293 292 291 290 289 289 289 289 287 286 283 279 280 280 280 278 275 275 277 276 272 269 268 268 265 262 258 251
289 290 292 294 295 294 292 291 290 291 292 291 290 290 291 293 292 290 289 289 288 288 289 288 285 281 278 278 279 279 279 276 274 274 273 271 268 266 265 264 261 257 252
289 289 291 292 291 290 289 289 289 288 289 289 288 288 290 290 290 289 288 288 288 288 288 287 284 280 278 279 278 277 278 275 274 275 272 270 267 265 263 262 261 257 251
289 292 290 288 289 290 289 287 286 286 286 287 287 287 287 287 287 286 286 285 285 287 288 286 283 281 279 277 277 276 275 273 272 272 271 269 266 264 262 260 260 259 255
284 287 289 287 287 287 287 286 284 284 285 287 289 288 287 286 284 283 283 282 283 284 286 286 283 281 279 277 277 275 273 272 272 271 271 269 266 264 263 261 260 258 258
285 286 286 285 284 285 285 283 282 284 286 287 289 290 289 287 285 284 283 282 282 283 283 284 284 281 280 278 278 276 273 272 272 270 271 271 268 265 263 262 261 258 258
283 287 284 283 283 283 282 280 281 282 284 285 286 287 288 288 286 286 286 284 284 283 282 282 283 282 282 280 280 278 274 273 272 271 272 271 269 268 266 263 262 260 257
285 285 284 284 284 282 280 279 279 282 284 284 285 285 284 285 285 285 285 285 285 282 281 282 283 283 283 282 280 278 276 273 272 271 272 270 268 268 266 265 264 261 259
283 283 284 282 284 284 281 280 281 283 283 283 284 284 284 283 284 284 283 283 282 282 282 281 280 282 282 282 280 279 277 274 272 272 272 269 267 267 266 265 264 263 261
283 283 283 284 284 282 280 281 281 281 283 282 282 282 283 282 282 282 282 282 282 281 282 282 281 281 281 281 279 277 276 275 273 273 271 269 268 267 265 263 263 264 263
283 283 283 284 283 283 282 282 282 281 281 282 281 281 282 281 282 282 282 280 281 281 282 281 281 280 279 280 278 277 276 275 274 272 272 269 267 266 265 263 262 263 263
283 284 284 285 284 284 282 280 281 282 283 281 280 281 282 282 281 282 283 282 280 279 281 281 280 280 280 280 279 277 274 273 272 272 271 270 267 266 264 262 262 262 261
285 285 284 284 283 283 282 282 284 283 282 284 284 281 282 282 281 282 282 282 279 279 280 281 281 280 281 281 279 276 273 272 272 271 270 269 268 265 264 262 262 261 259
284 284 283 283 283 284 285 284 284 285 284 285 286 284 283 283 282 282 282 282 280 280 280 281 281 282 282 281 280 277 274 272 271 269 268 268 268 267 265 263 262 260 259
282 283 284 284 285 286 288 288 287 287 287 289 289 288 286 285 284 283 284 283 282 282 283 282 281 281 282 281 280 278 276 274 271 270 269 268 267 267 266 264 263 261 259
282 284 288 287 286 288 290 291 292 293 293 292 291 289 288 286 285 284 284 284 284 284 284 284 283 282 282 283 281 278 276 275 273 271 270 268 267 267 267 266 265 262 260
285 287 289 290 290 290 292 294 294 294 294 293 291 288 286 284 284 285 285 285 284 285 285 284 284 283 282 282 280 279 277 276 272 270 270 269 268 268 266 265 265 264 261
284 286 287 290 291 291 293 295 295 296 296 294 293 292 289 285 285 286 286 286 286 286 287 286 284 283 282 281 279 277 276 275 273 270 269 269 269 269 267 266 265 262 261
284 287 287 289 291 292 294 296 296 297 296 295 295 293 291 289 287 287 286 288 288 289 288 287 286 284 283 281 280 278 276 275 275 272 271 269 269 270 269 267 265 262 260
286 288 290 292 294 295 296 297 298 298 298 297 295 294 292 291 289 287 286 289 290 290 289 287 286 285 283 282 280 278 277 276 274 273 272 270 270 271 270 269 266 264 261
Height
5906 5905 5905 5905 5905 5904 5904 5903 5902 5901 5900 5899 5898 5897 5896 5895 5894 5893 5893 5892 5891 5890 5889 5888 5888 5887 5886 5886 5885 5884 5884 5883 5882 5882 5881 5881 5880 5880 5879 5879 5878 5878 5878
5905 5905 5904 5904 5904 5903 5903 5902 5901 5900 5899 5898 5896 5895 5894 5893 5892 5892 5891 5890 5889 5888 5887 5886 5886 5885 5885 5884 5883 5883 5882 5881 5881 5880 5880 5879 5879 5878 5878 5877 5877 5877 5876
5904 5903 5903 5903 5903 5902 5901 5900 5899 5898 5897 5896 5894 5893 5892 5891 5890 5889 5889 5888 5887 5886 5885 5884 5884 5883 5883 5882 5881 5881 5880 5880 5879 5878 5878 5877 5877 5876 5876 5875 5875 5875 5875
5903 5902 5902 5901 5901 5900 5899 5898 5897 5896 5895 5894 5892 5891 5890 5889 5888 5887 5886 5886 5885 5884 5883 5882 5881 5881 5880 5879 5879 5878 5878 5878 5877 5876 5876 5875 5875 5874 5874 5873 5873 5873 5874
5901 5900 5900 5899 5899 5898 5897 5896 5895 5894 5893 5891 5890 5889 5888 5887 5886 5885 5884 5883 5882 5881 5880 5879 5879 5878 5877 5877 5876 5876 5876 5875 5875 5874 5874 5873 5873 5872 5872 5871 5871 5871 5872
5899 5898 5898 5897 5896 5895 5894 5893 5892 5891 5890 5889 5888 5887 5886 5884 5883 5882 5881 5881 5880 5879 5878 5877 5876 5875 5874 5874 5873 5873 5873 5872 5872 5871 5871 5870 5870 5870 5869 5869 5869 5869 5869
5897 5896 5895 5894 5894 5893 5892 5891 5889 5888 5887 5886 5885 5884 5883 5882 5881 5880 5879 5878 5877 5876 5874 5874 5873 5872 5871 5871 5870 5870 5869 5869 5868 5868 5868 5867 5867 5867 5867 5867 5867 5867 5867
5894 5893 5892 5892 5891 5890 5889 5887 5886 5885 5884 5883 5882 5881 5879 5878 5877 5876 5875 5874 5873 5872 5871 5870 5869 5868 5868 5867 5867 5867 5866 5865 5865 5864 5864 5864 5864 5864 5863 5863 5863 5864 5864
5891 5890 5889 5888 5887 5886 5885 5884 5883 5881 5880 5879 5878 5877 5876 5875 5874 5873 5872 5871 5870 5869 5868 5867 5866 5865 5864 5863 5863 5863 5862 5861 5861 5861 5860 5860 5860 5860 5860 5860 5860 5860 5860
5888 5887 5887 5885 5884 5883 5882 5880 5879 5878 5877 5876 5875 5873 5872 5871 5870 5869 5868 5867 5866 5865 5864 5863 5862 5861 5860 5859 5859 5858 5858 5857 5857 5856 5856 5856 5856 5856 5856 5856 5856 5856 5856
5885 5884 5883 5882 5881 5879 5878 5876 5875 5874 5873 5872 5871 5869 5868 5867 5865 5864 5863 5862 5861 5860 5859 5858 5857 5857 5856 5855 5854 5854 5853 5853 5853 5852 5852 5852 5852 5852 5851 5851 5852 5852 5852
5882 5881 5880 5878 5877 5876 5874 5872 5871 5870 5869 5868 5866 5865 5863 5862 5860 5859 5858 5857 5856 5855 5854 5853 5852 5852 5851 5850 5849 5849 5848 5848 5847 5847 5847 5847 5847 5847 5847 5847 5847 5847 5848
5879 5878 5876 5874 5873 5872 5870 5869 5867 5866 5864 5863 5862 5860 5858 5857 5855 5854 5853 5852 5851 5850 5849 5848 5847 5847 5846 5845 5844 5844 5843 5842 5842 5842 5842 5842 5842 5842 5842 5842 5842 5843 5843
5875 5873 5872 5870 5869 5867 5866 5864 5863 5861 5860 5858 5857 5855 5854 5853 5851 5850 5849 5847 5846 5845 5844 5843 5842 5842 5840 5840 5839 5839 5838 5837 5837 5836 5836 5837 5836 5836 5836 5837 5837 5837 5838
5871 5869 5868 5866 5864 5863 5861 5860 5858 5857 5855 5853 5852 5851 5849 5848 5847 5845 5844 5842 5841 5839 5839 5838 5837 5836 5835 5834 5833 5833 5832 5831 5831 5831 5831 5831 5831 5831 5831 5831 5831 5831 5832
5866 5865 5863 5862 5860 5859 5857 5855 5853 5852 5850 5848 5847 5845 5844 5843 5841 5840 5838 5837 5835 5834 5833 5832 5831 5830 5829 5828 5827 5826 5826 5825 5825 5825 5824 5824 5824 5825 5825 5825 5825 5825 5826
5862 5860 5859 5857 5855 5854 5852 5850 5848 5846 5844 5843 5841 5840 5838 5837 5835 5834 5832 5831 5830 5828 5827 5826 5825 5823 5822 5821 5820 5819 5819 5818 5818 5818 5817 5817 5817 5817 5818 5818 5819 5819 5819
5857 5855 5853 5852 5850 5848 5846 5844 5843 5841 5839 5837 5835 5834 5832 5831 5829 5828 5826 5825 5823 5822 5821 5819 5818 5816 5815 5814 5813 5813 5812 5811 5811 5810 5810 5810 5810 5810 5811 5811 5811 5812 5813
5852 5850 5848 5846 5845 5843 5841 5839 5838 5836 5834 5831 5829 5827 5826 5824 5823 5821 5820 5818 5816 5815 5814 5812 5811 5810 5808 5807 5806 5805 5804 5803 5803 5803 5802 5802 5802 5802 5802 5803 5804 5804 5805
5846 5845 5843 5841 5840 5838 5836 5834 5832 5830 5828 5826 5824 5821 5819 5818 5816 5814 5813 5811 5809 5808 5807 5805 5804 5803 5801 5800 5798 5797 5796 5795 5794 5794 5794 5794 5794 5794 5794 5795 5795 5796 5797
5841 5839 5838 5836 5834 5832 5830 5828 5826 5824 5822 5820 5817 5815 5812 5810 5809 5807 5805 5804 5802 5801 5799 5798 5796 5795 5794 5792 5790 5789 5788 5786 5786 5785 5785 5785 5785 5785 5785 5786 5786 5787 5788
5836 5835 5833 5831 5829 5827 5825 5822 5820 5818 5816 5813 5810 5808 5805 5803 5802 5800 5798 5796 5795 5793 5791 5790 5788 5787 5785 5784 5782 5781 5780 5779 5777 5777 5776 5776 5776 5776 5776 5777 5777 5777 5778
5831 5830 5828 5826 5823 5822 5819 5817 5814 5812 5809 5806 5804 5801 5799 5797 5795 5792 5790 5789 5787 5785 5783 5781 5780 5779 5777 5775 5773 5772 5771 5770 5769 5769 5768 5767 5767 5767 5767 5767 5767 5768 5769
5826 5824 5822 5820 5818 5816 5814 5811 5808 5805 5802 5799 5796 5794 5791 5789 5787 5785 5783 5781 5779 5777 5775 5773 5772 5770 5768 5766 5765 5763 5762 5761 5760 5760 5759 5758 5758 5758 5758 5758 5758 5758 5759
5820 5819 5817 5815 5813 5810 5808 5805 5802 5799 5796 5792 5789 5786 5784 5782 5780 5777 5776 5774 5772 5770 5767 5765 5763 5762 5760 5758 5757 5755 5753 5752 5751 5751 5750 5749 5749 5748 5748 5748 5748 5748 5749
5815 5813 5811 5809 5807 5805 5802 5799 5796 5793 5789 5786 5782 5779 5777 5775 5772 5770 5768 5766 5764 5762 5759 5757 5755 5753 5751 5750 5748 5746 5745 5744 5743 5742 5741 5740 5740 5739 5738 5738 5738 5738 5739